Location: Cz?stochówka
(50.8142°N, 19.0915°E)
Time: 16:14:48
(UTC+00:00)

SJ-12 - Pass Details

Date: 13 January 2026
Orbit: 514 x 525 km, 97.8° (Epoch: 18 February)

Event Time Altitude Azimuth Distance (km) Brightness Sun altitude
Rises 05:24:09 0° 15° (NNE) 2,678 7.3 -11.7°
Reaches altitude 10° 05:26:16 10° 18° (NNE) 1,783 6.4 -11.3°
Maximum altitude 05:30:07 70° 102° (ESE) 565 4.1 -10.8°
Drops below altitude 10° 05:33:54 10° 187° (S) 1,761 6.6 -10.2°
Sets 05:36:00 0° 190° (S) 2,642 7.5 -9.9°
